Regional Weather Roundup
Issued by NWS

Home | Current Version | Previous Version | Graphics & Text | Print | Product List | Glossary On
Versions: 1 2 3 4 5 6 7 8 9 10 11 12 13 14 15 16 17 18 19 20 21 22 23 24 25 26 27 28 29 30 31 32 33 34 35 36 37 38 39 40 41 42 43 44 45 46 47
000
ASUS45 KCYS 262010
RWRWY

WYOMING REGIONAL WEATHER ROUNDUP
NATIONAL WEATHER SERVICE CHEYENNE WY
100 PM MST FRI DEC 26 2014

NOTE:  "FAIR" INDICATES FEW OR NO CLOUDS BELOW 12,000 FEET
WITH NO SIGNIFICANT WEATHER AND/OR OBSTRUCTIONS TO VISIBILITY.

WYZ001-262100-
YELLOWSTONE NATIONAL PARK

CITY           SKY/WX    TMP DP  RH WIND       PRES   REMARKS
LK YELLOWSTONE   N/A     14   3  61 VRB6      29.90F WCI   5
W YELLOWSTONE  NOT AVBL

$$
WYZ002>013-054>058-071-098>099-262100-
NORTHERN WYOMING

CITY           SKY/WX    TMP DP  RH WIND       PRES   REMARKS
JACKSON        PTSUNNY  N/A N/A N/A CALM      29.92F
CODY           FAIR      21  14  73 SW7       29.98S WCI  13
GREYBULL       FAIR      20  15  81 CALM      30.05F
WORLAND        LGT SNOW  19  16  88 CALM      30.03F FOG
SHERIDAN       FAIR      15  10  80 CALM      30.02F
BUFFALO        FAIR      21  12  68 CALM      29.98F
GILLETTE       CLOUDY    19  13  77 W7        30.00F WCI  10
HULETT           N/A    N/A N/A N/A MISG        N/A
NEWCASTLE      CLOUDY    21  14  73 W5        30.02S WCI  15

$$
WYZ014>020-022>026-101>103-262100-
CENTRAL WYOMING

CITY           SKY/WX    TMP DP  RH WIND       PRES   REMARKS
BIG PINEY      FAIR      14   9  80 CALM      29.89S
PINEDALE       FAIR      14   9  79 CALM      29.89S
DUBOIS         NOT AVBL
LANDER         CLOUDY    16  13  88 CALM      29.95F
RIVERTON       LGT SNOW  19  13  77 W3        29.97F
CASPER         FAIR      17  11  77 NW3       29.96S
DOUGLAS        CLOUDY    18  13  80 N9        29.98F WCI   7

$$
WYZ021-027>030-104>119-262100-
SOUTHERN WYOMING

CITY           SKY/WX    TMP DP  RH WIND       PRES   REMARKS
EVANSTON       LGT SNOW  19  12  74 NW5       29.88S WCI  12
KEMMERER       LGT SNOW  19  10  68 CALM      29.88S VSB 3/4
FORT BRIDGER   CLOUDY    20  13  76 SE7       29.91S WCI  11
ROCK SPRINGS   LGT SNOW  16  10  77 NE16      29.88S WCI   1
DIXON          LGT SNOW  20  14  77 SW7       29.82S WCI  11
RAWLINS        CLOUDY    14   7  73 NE17      29.85S WCI  -3
SARATOGA       LGT SNOW  18  10  73 NW7       29.81F WCI   8
LARAMIE        CLOUDY    10   5  80 NW5       29.80F WCI   2
CHEYENNE       CLOUDY    15   7  70 N8        29.87S WCI   4
TORRINGTON     LGT SNOW  20  15  81 CALM      30.00F
PINE BLUFFS    CLOUDY    18  12  79 N5        29.94F HAZE    WCI  11

$$



USA.gov is the U.S. government's official web portal to all federal, state and local government web resources and services.